Regional Weather Roundup
Issued by NWS

Home | Current Version | Previous Version | Text Only | Print | Product List | Glossary On
Versions: 1 2 3 4 5 6 7 8 9 10 11 12 13 14 15 16 17 18 19 20 21 22 23 24 25 26 27 28 29 30 31 32 33 34 35 36 37 38 39 40 41 42 43 44 45 46 47 48 49 50
000
ASUS43 KTOP 260908
RWRKS

WEATHER ROUNDUP FOR KANSAS
NATIONAL WEATHER SERVICE GOODLAND KS
400 AM CDT MON SEP 26 2016

NOTE:  "FAIR" INDICATES FEW OR NO CLOUDS BELOW 12,000 FEET WITH NO
SIGNIFICANT WEATHER AND/OR OBSTRUCTIONS TO VISIBILITY.

KSZ001>006-013>018-027>032-041>047-261000-
NORTHWEST KANSAS

CITY           SKY/WX    TMP DP  RH WIND       PRES   REMARKS
GOODLAND       CLEAR     41  34  76 W5        30.38F
HAYS           CLEAR     45  28  53 NW7       30.34S
HILL CITY      CLEAR     39  35  86 W5        30.36F
RUSSELL        CLEAR     47  36  65 NW7       30.32S
$$

KSZ061>065-074>080-084>089-261000-
SOUTHWEST KANSAS

CITY           SKY/WX    TMP DP  RH WIND       PRES   REMARKS
DODGE CITY     CLEAR     42  33  70 NW8       30.35F
ELKHART          N/A     47  30  51 W5          N/A
GARDEN CITY    CLEAR     45  31  58 N9        30.36F
GREAT BEND     CLEAR     46  34  61 NW5       30.33S
LIBERAL        CLEAR     45  30  57 NW5       30.37F
PRATT          CLEAR     44  38  81 NW5       30.33S HAZE
$$

KSZ066>073-081>083-090>101-261000-
SOUTHEAST KANSAS

CITY           SKY/WX    TMP DP  RH WIND       PRES   REMARKS
CHANUTE        CLOUDY    56  53  90 N6        30.24R
COFFEYVILLE    PTCLDY    57  56  96 N7        30.22S
HUTCHINSON     CLEAR     52  40  63 N7        30.30S
MEDICINE LODGE   N/A     48  43  82 N3          N/A
NEWTON         CLEAR    N/A N/A N/A N10       30.30R
PARSONS        PTCLDY    56  54  93 N6        30.24R
WICHITA INTL   PTCLDY    51  47  86 NW7       30.28S
WICHITA JABRA  CLEAR     51  45  79 N8        30.28R
WICHITA MCCONL CLEAR     54  44  68 N6        30.28S
WINFIELD       CLEAR     52  49  89 N5        30.28S
$$

KSZ007>012-019>026-033>040-048>060-102>105-261000-
NORTHEAST KANSAS

CITY           SKY/WX    TMP DP  RH WIND       PRES   REMARKS
CONCORDIA      CLEAR     46  40  79 W8        30.29F
EMPORIA        CLEAR     51  45  79 NW6       30.27R
LAWRENCE       CLEAR     50  48  93 W7        30.25R
MANHATTAN      CLEAR     46  43  89 CALM      30.27F
MARYSVILLE     CLEAR     46  39  76 CALM      30.27S
OLATHE IND     CLEAR     53  49  86 NW7       30.24S
OLATHE EXE     CLEAR     55  50  83 N6        30.23S
SALINA         CLEAR     49  42  77 NW6       30.30S
TOPEKA BILLARD CLEAR     52  45  77 SW3       30.25S
TOPEKA FORBES  HAZE      51  45  79 NW3       30.26R VSB 1
$$



USA.gov is the U.S. government's official web portal to all federal, state and local government web resources and services.